When you browse on this site, cookies collect data to enhance your experience and personalize the content and advertising you see.
Visit our Privacy Policy to learn more. By continuing to use the site, you agree to this use of cookies and data.
  • In Romania
  • List of Countries
  • For 7 days
  • Water Temperature
  • Satellite Maps
  • Weather Map
  • Weather Widgets
  • user-avatar
    Login

    Hourly Weather Algiers

    Today, 26 May, Sunday

    Time Temperature Precipitation Wind Pressure Humidity
    00:00 +17°C° 0 mm 3 mps 748 mmHg 77%
    01:00 +17°C° 0.2 mm 3 mps 748 mmHg 77%
    02:00 +17°C° 0.2 mm 4 mps 748 mmHg 78%
    03:00 +17°C° 0.2 mm 4 mps 748 mmHg 79%
    04:00 +17°C° 0.8 mm 4 mps 748 mmHg 79%
    05:00 +17°C° 0.8 mm 4 mps 748 mmHg 79%
    06:00 +17°C° 0 mm 6 mps 748 mmHg 78%
    07:00 +17°C° 0.8 mm 6 mps 748 mmHg 75%
    08:00 +19°C° 0.8 mm 5 mps 748 mmHg 72%
    09:00 +19°C° 0.8 mm 5 mps 748 mmHg 70%
    10:00 +20°C° 0.6 mm 5 mps 748 mmHg 67%
    11:00 +20°C° 0.6 mm 4 mps 749 mmHg 65%
    12:00 +21°C° 0.6 mm 4 mps 749 mmHg 62%
    13:00 +21°C° 0.3 mm 4 mps 749 mmHg 61%
    14:00 +21°C° 0.3 mm 4 mps 749 mmHg 60%
    15:00 +21°C° 0.3 mm 4 mps 748 mmHg 59%
    16:00 +21°C° 0.1 mm 3 mps 748 mmHg 60%
    17:00 +20°C° 0.1 mm 2 mps 748 mmHg 62%
    18:00 +20°C° 0.1 mm 2 mps 748 mmHg 63%
    19:00 +20°C° 0 mm 1 mps 749 mmHg 65%
    20:00 +20°C° 0 mm 1 mps 749 mmHg 68%
    21:00 +17°C° 0 mm 0 mps 749 mmHg 70%
    22:00 +19°C° 0 mm 1 mps 749 mmHg 71%
    23:00 +18°C° 0 mm 2 mps 749 mmHg 71%

    Tomorrow, 27 May, Monday

    Time Temperature Precipitation Wind Pressure Humidity
    00:00 +17°C° 0 mm 2 mps 748 mmHg 71%
    01:00 +17°C° 0 mm 2 mps 748 mmHg 70%
    02:00 +17°C° 0 mm 2 mps 748 mmHg 69%
    03:00 +17°C° 0 mm 2 mps 747 mmHg 67%
    04:00 +17°C° 0 mm 2 mps 747 mmHg 65%
    05:00 +18°C° 0 mm 2 mps 747 mmHg 63%
    06:00 +18°C° 0 mm 2 mps 747 mmHg 61%
    07:00 +20°C° 0 mm 2 mps 747 mmHg 56%
    08:00 +21°C° 0 mm 2 mps 748 mmHg 51%
    09:00 +24°C° 0 mm 2 mps 748 mmHg 46%
    10:00 +25°C° 0 mm 2 mps 748 mmHg 43%
    11:00 +25°C° 0 mm 2 mps 748 mmHg 41%
    12:00 +26°C° 0 mm 2 mps 747 mmHg 39%
    13:00 +26°C° 0 mm 3 mps 747 mmHg 39%
    14:00 +26°C° 0 mm 3 mps 747 mmHg 39%
    15:00 +26°C° 0 mm 3 mps 747 mmHg 40%
    16:00 +25°C° 0 mm 3 mps 747 mmHg 43%
    17:00 +25°C° 0 mm 3 mps 746 mmHg 47%
    18:00 +24°C° 0 mm 3 mps 746 mmHg 51%
    19:00 +22°C° 0 mm 3 mps 747 mmHg 53%
    20:00 +21°C° 0 mm 3 mps 747 mmHg 55%
    21:00 +21°C° 0 mm 3 mps 747 mmHg 57%
    22:00 +21°C° 0 mm 2 mps 747 mmHg 56%
    23:00 +20°C° 0 mm 2 mps 747 mmHg 55%

    Day after tomorrow, 28 May, Tuesday

    Time Temperature Precipitation Wind Pressure Humidity
    00:00 +20°C° 0 mm 2 mps 747 mmHg 55%
    01:00 +21°C° 0 mm 1 mps 747 mmHg 54%
    02:00 +21°C° 0 mm 1 mps 746 mmHg 54%
    03:00 +21°C° 0 mm 1 mps 746 mmHg 53%
    04:00 +21°C° 0 mm 1 mps 746 mmHg 52%
    05:00 +22°C° 0 mm 1 mps 747 mmHg 51%
    06:00 +22°C° 0 mm 1 mps 747 mmHg 50%
    07:00 +24°C° 0 mm 1 mps 747 mmHg 46%
    08:00 +25°C° 0 mm 1 mps 747 mmHg 41%
    09:00 +27°C° 0 mm 1 mps 748 mmHg 37%
    10:00 +28°C° 0 mm 2 mps 748 mmHg 36%
    11:00 +28°C° 0 mm 3 mps 748 mmHg 35%
    12:00 +29°C° 0 mm 3 mps 748 mmHg 35%
    13:00 +29°C° 0 mm 4 mps 747 mmHg 35%
    14:00 +28°C° 0 mm 4 mps 747 mmHg 36%
    15:00 +28°C° 0 mm 4 mps 747 mmHg 37%
    16:00 +27°C° 0 mm 4 mps 747 mmHg 41%
    17:00 +26°C° 0 mm 3 mps 747 mmHg 44%
    18:00 +25°C° 0 mm 3 mps 747 mmHg 47%
    19:00 +24°C° 0 mm 3 mps 748 mmHg 52%
    20:00 +22°C° 0 mm 3 mps 748 mmHg 56%
    21:00 +21°C° 0 mm 2 mps 749 mmHg 60%
    22:00 +21°C° 0 mm 2 mps 749 mmHg 61%
    23:00 +20°C° 0 mm 2 mps 749 mmHg 62%

    29 May, Wednesday

    Time Temperature Precipitation Wind Pressure Humidity
    00:00 +21°C° 0 mm 1 mps 749 mmHg 64%
    01:00 +21°C° 0 mm 1 mps 749 mmHg 63%
    02:00 +21°C° 0 mm 1 mps 749 mmHg 63%
    03:00 +21°C° 0 mm 1 mps 749 mmHg 63%
    04:00 +20°C° 0 mm 2 mps 749 mmHg 63%
    05:00 +20°C° 0 mm 2 mps 749 mmHg 63%
    06:00 +20°C° 0 mm 3 mps 749 mmHg 63%
    07:00 +21°C° 0 mm 4 mps 750 mmHg 60%
    08:00 +22°C° 0 mm 4 mps 750 mmHg 57%
    09:00 +23°C° 0 mm 5 mps 750 mmHg 54%
    10:00 +25°C° 0 mm 5 mps 750 mmHg 52%
    11:00 +24°C° 0 mm 6 mps 750 mmHg 51%
    12:00 +26°C° 0 mm 6 mps 750 mmHg 49%
    13:00 +26°C° 0 mm 6 mps 750 mmHg 50%
    14:00 +24°C° 0 mm 6 mps 750 mmHg 51%
    15:00 +24°C° 0 mm 7 mps 750 mmHg 52%
    16:00 +23°C° 0 mm 6 mps 750 mmHg 56%
    17:00 +22°C° 0 mm 6 mps 750 mmHg 60%
    18:00 +21°C° 0 mm 6 mps 750 mmHg 64%
    19:00 +20°C° 0 mm 5 mps 751 mmHg 67%
    20:00 +20°C° 0 mm 5 mps 752 mmHg 71%
    21:00 +19°C° 0 mm 5 mps 752 mmHg 74%
    22:00 +17°C° 0 mm 5 mps 752 mmHg 75%
    23:00 +17°C° 0 mm 5 mps 752 mmHg 76%

    30 May, Thursday

    Time Temperature Precipitation Wind Pressure Humidity
    00:00 +18°C° 0 mm 4 mps 752 mmHg 77%
    01:00 +18°C° 0 mm 4 mps 752 mmHg 78%
    02:00 +17°C° 0 mm 4 mps 752 mmHg 78%
    03:00 +17°C° 0 mm 4 mps 752 mmHg 79%
    04:00 +17°C° 0 mm 5 mps 752 mmHg 77%
    05:00 +17°C° 0 mm 5 mps 753 mmHg 75%
    06:00 +17°C° 0 mm 5 mps 753 mmHg 74%
    07:00 +19°C° 0 mm 5 mps 753 mmHg 67%
    08:00 +21°C° 0 mm 6 mps 753 mmHg 60%
    09:00 +22°C° 0 mm 7 mps 754 mmHg 53%
    10:00 +23°C° 0 mm 8 mps 754 mmHg 50%
    11:00 +23°C° 0 mm 8 mps 754 mmHg 48%
    12:00 +24°C° 0 mm 9 mps 753 mmHg 45%
    13:00 +24°C° 0 mm 9 mps 753 mmHg 44%
    14:00 +24°C° 0 mm 9 mps 753 mmHg 44%
    15:00 +23°C° 0 mm 9 mps 753 mmHg 43%
    16:00 +22°C° 0 mm 9 mps 753 mmHg 45%
    17:00 +22°C° 0 mm 8 mps 753 mmHg 47%
    18:00 +21°C° 0 mm 8 mps 753 mmHg 49%
    19:00 +20°C° 0 mm 7 mps 754 mmHg 51%
    20:00 +19°C° 0 mm 6 mps 754 mmHg 54%
    21:00 +17°C° 0 mm 5 mps 754 mmHg 57%
    22:00 +17°C° 0 mm 5 mps 754 mmHg 59%
    23:00 +18°C° 0 mm 4 mps 754 mmHg 61%

    31 May, Friday

    Time Temperature Precipitation Wind Pressure Humidity
    00:00 +17°C° 0 mm 3 mps 754 mmHg 63%
    01:00 +17°C° 0 mm 3 mps 754 mmHg 64%
    02:00 +17°C° 0 mm 3 mps 754 mmHg 65%
    03:00 +16°C° 0 mm 3 mps 754 mmHg 66%
    04:00 +17°C° 0 mm 3 mps 754 mmHg 64%
    05:00 +17°C° 0 mm 3 mps 754 mmHg 62%
    06:00 +17°C° 0 mm 3 mps 754 mmHg 60%
    07:00 +19°C° 0 mm 3 mps 754 mmHg 55%
    08:00 +20°C° 0 mm 4 mps 754 mmHg 50%
    09:00 +22°C° 0 mm 4 mps 755 mmHg 45%
    10:00 +23°C° 0 mm 5 mps 754 mmHg 43%
    11:00 +25°C° 0 mm 5 mps 754 mmHg 42%
    12:00 +26°C° 0 mm 6 mps 754 mmHg 41%
    13:00 +26°C° 0 mm 6 mps 754 mmHg 42%
    14:00 +26°C° 0 mm 6 mps 753 mmHg 42%
    15:00 +26°C° 0 mm 6 mps 753 mmHg 43%
    16:00 +24°C° 0 mm 6 mps 753 mmHg 47%
    17:00 +23°C° 0 mm 6 mps 753 mmHg 51%
    18:00 +22°C° 0 mm 6 mps 753 mmHg 54%
    19:00 +21°C° 0 mm 5 mps 753 mmHg 58%
    20:00 +20°C° 0 mm 5 mps 753 mmHg 61%
    21:00 +19°C° 0 mm 4 mps 754 mmHg 65%
    22:00 +19°C° 0 mm 4 mps 753 mmHg 65%
    23:00 +19°C° 0 mm 3 mps 753 mmHg 65%
    Show more